Location: Del Amo
(33.8464°N, 118.2104°W)
Time: 19:32:59
(UTC+00:00)

Vanguard 3 - Pass Details

Date: 14 September 2024
Orbit: 507 x 3224 km, 33.4° (Epoch: 05 October)

Event Time Altitude Azimuth Distance (km) Brightness Sun altitude
Rises 11:06:42 0° 189° (S) 5,952 - -30.5°
Exits shadow 11:08:03 - 185° (S) 5,775 11.2 -30.2°
Reaches altitude 10° 11:11:54 10° 174° (S) 5,359 11.1 -29.5°
Maximum altitude 11:23:06 21° 132° (SE) 5,042 11.3 -27.4°
Drops below altitude 10° 11:35:39 10° 92° (E) 6,146 12.5 -25.0°
Sets 11:42:07 0° 79° (E) 7,057 13.3 -23.8°
